DW6345 Murcia ES current weather conditions

sailwx.info

Wind from 045

Air temperature 17.2° C
Dewpoint 11.5° C

Last reported at 2016-Apr-30 19:50 UTC.
Time now 2016-Apr-30 20:44 UTC

Location: N 37°60' W 001°06'.
View on Google Maps.

See reports from other nearby stations

  
Tides and Currents Weather Stations Pressure Air Temp Water Temp Dewpoint Dewpoint Depression Visibility Wind Speed Wind Dir Waves Ship Positions
date/time (UTC)wind fromknots sea level pressurealtimeterstation pressurevisibilityair tempwater tempwave heightnotes
2016-Apr-30 19:50 045 17.2
2016-Apr-30 19:45 087 17.2
2016-Apr-30 19:40 090 17.8
2016-Apr-30 19:35 087 17.8
2016-Apr-30 19:30 090 17.8
2016-Apr-30 19:25 089 17.8
2016-Apr-30 19:20 093 17.8
2016-Apr-30 19:15 138 17.8
2016-Apr-30 19:10 135 18.3
2016-Apr-30 19:05 180 18.3
2016-Apr-30 19:00 180 18.3
2016-Apr-30 18:55 181 18.3
2016-Apr-30 18:50 180 18.3
2016-Apr-30 18:45 180 18.3
2016-Apr-30 18:40 180 18.9
2016-Apr-30 18:35 180 18.9
2016-Apr-30 18:30 180 18.9
2016-Apr-30 18:25 180 19.4
2016-Apr-30 18:20 140 19.4
2016-Apr-30 18:15 248 19.4
2016-Apr-30 18:10 180 20.0
2016-Apr-30 18:05 135 20.0
2016-Apr-30 18:00 177 20.0
2016-Apr-30 17:55 093 20.0
2016-Apr-30 17:50 132 20.0
2016-Apr-30 17:45 132 20.0
2016-Apr-30 17:40 094 20.0
2016-Apr-30 17:35 132 -0.0
2016-Apr-30 17:30 089 -0.0
2016-Apr-30 17:26 089 -0.0
2016-Apr-30 17:14 093 20.0
2016-Apr-30 17:09 090 20.0
2016-Apr-30 17:04 090 20.0
2016-Apr-30 16:59 093 20.0
2016-Apr-30 16:54 090 20.0
2016-Apr-30 16:49 093 20.0
2016-Apr-30 16:44 108 20.0
2016-Apr-30 16:39 093 20.0
2016-Apr-30 16:34 131 20.0
2016-Apr-30 16:29 069 20.0
2016-Apr-30 16:24 132 20.6
2016-Apr-30 16:19 132 20.6
2016-Apr-30 16:14 094 21.1
2016-Apr-30 16:09 090 21.1
2016-Apr-30 16:04 135 22.8
2016-Apr-30 15:59 090 0 gusting 11 22.8
2016-Apr-30 15:54 097 1 gusting 22 23.3
2016-Apr-30 15:49 090 0 gusting 22 24.4
2016-Apr-30 15:44 090 6 gusting 31 25.6
2016-Apr-30 15:39 090 26.7
2016-Apr-30 15:34 093 27.2
2016-Apr-30 15:29 048 27.2
2016-Apr-30 15:24 273 27.2
2016-Apr-30 15:19 090 26.7
2016-Apr-30 15:14 090 26.7
2016-Apr-30 15:09 132 27.2
2016-Apr-30 15:04 045 26.7
2016-Apr-30 14:59 041 26.7
2016-Apr-30 14:54 273 26.7
2016-Apr-30 14:49 092 26.1
2016-Apr-30 14:44 087 26.1
2016-Apr-30 14:39 090 26.1
2016-Apr-30 14:34 270 26.1
2016-Apr-30 14:29 270 25.6
2016-Apr-30 14:24 270 25.6
2016-Apr-30 14:19 207 25.6
2016-Apr-30 14:14 244 25.6
2016-Apr-30 14:09 135 25.6
2016-Apr-30 14:04 315 25.0
2016-Apr-30 13:59 270 25.0
2016-Apr-30 13:54 248 25.0
2016-Apr-30 13:49 270 25.0
2016-Apr-30 13:44 244 25.0
2016-Apr-30 13:39 180 25.0
2016-Apr-30 13:34 184 25.0
2016-Apr-30 13:29 248 25.0
2016-Apr-30 13:24 315 24.4
2016-Apr-30 13:19 270 25.0
2016-Apr-30 13:14 249 24.4
2016-Apr-30 13:09 252 24.4
2016-Apr-30 13:04 248 24.4
2016-Apr-30 12:59 180 23.9
2016-Apr-30 12:54 184 23.9
2016-Apr-30 12:49 273 23.9
2016-Apr-30 12:44 205 23.9
2016-Apr-30 12:39 184 23.9
2016-Apr-30 12:34 184 23.9
2016-Apr-30 12:29 244 23.9
2016-Apr-30 12:24 273 23.3
2016-Apr-30 12:19 248 22.8
2016-Apr-30 12:14 269 22.8
2016-Apr-30 12:09 180 22.2
2016-Apr-30 12:04 270 22.2
2016-Apr-30 11:59 269 22.2
2016-Apr-30 11:54 270 22.2
2016-Apr-30 11:49 270 21.7
2016-Apr-30 11:44 273 21.7
2016-Apr-30 11:39 356 21.7
2016-Apr-30 11:34 180 21.1
2016-Apr-30 11:29 275 21.1
2016-Apr-30 11:24 248 21.1
2016-Apr-30 11:19 248 21.1
2016-Apr-30 11:14 248 21.1
2016-Apr-30 11:09 315 20.6
2016-Apr-30 11:04 270 20.6
2016-Apr-30 10:59 313 20.0
2016-Apr-30 10:54 315 20.0
2016-Apr-30 10:49 248 19.4
2016-Apr-30 10:44 270 19.4
2016-Apr-30 10:39 270 19.4
2016-Apr-30 10:34 273 19.4
2016-Apr-30 10:29 312 19.4
2016-Apr-30 10:24 311 18.9
2016-Apr-30 10:19 248 18.3
2016-Apr-30 10:14 248 18.3
2016-Apr-30 10:09 248 18.3
2016-Apr-30 10:04 270 17.8
2016-Apr-30 09:59 270 17.8
2016-Apr-30 09:54 273 17.8
2016-Apr-30 09:49 248 17.2
2016-Apr-30 09:44 273 17.2
2016-Apr-30 09:39 315 17.2
2016-Apr-30 09:34 270 17.2
2016-Apr-30 09:29 269 17.2
2016-Apr-30 09:24 249 16.7
2016-Apr-30 09:19 312 16.7
2016-Apr-30 09:14 244 16.7
2016-Apr-30 09:09 273 16.7
2016-Apr-30 09:04 045 16.1
2016-Apr-30 08:59 315 16.1
2016-Apr-30 08:54 270 16.1
2016-Apr-30 08:49 041 16.1
2016-Apr-30 08:44 045 16.1
2016-Apr-30 08:39 270 16.1
2016-Apr-30 08:34 315 16.1
2016-Apr-30 08:29 319 16.1
2016-Apr-30 08:24 270 16.1
2016-Apr-30 08:19 273 16.1
2016-Apr-30 08:14 315 16.1
2016-Apr-30 08:09 273 16.1
2016-Apr-30 08:04 315 15.6
2016-Apr-30 07:59 270 15.6
2016-Apr-30 07:54 312 15.6
2016-Apr-30 07:49 270 15.6
2016-Apr-30 07:44 269 15.6
2016-Apr-30 07:39 248 15.6
2016-Apr-30 07:34 268 15.6
2016-Apr-30 07:29 269 15.6
2016-Apr-30 07:24 249 15.6
2016-Apr-30 07:19 270 15.6
2016-Apr-30 07:14 270 15.6
2016-Apr-30 07:09 271 15.0
2016-Apr-30 07:04 248 15.0
2016-Apr-30 06:59 312 15.0
2016-Apr-30 06:54 268 15.0
2016-Apr-30 06:49 248 15.0
2016-Apr-30 06:44 270 15.0
2016-Apr-30 06:39 270 15.0
2016-Apr-30 06:34 270 15.0
2016-Apr-30 06:29 270 15.0
2016-Apr-30 06:24 312 15.0
2016-Apr-30 06:19 273 15.0
2016-Apr-30 06:14 312 15.0
2016-Apr-30 06:09 273 15.0
2016-Apr-30 06:04 315 15.0
2016-Apr-30 05:59 273 15.0
2016-Apr-30 05:54 270 15.0
2016-Apr-30 05:49 269 15.0
2016-Apr-30 05:44 269 15.0
2016-Apr-30 05:39 311 15.0
2016-Apr-30 05:34 245 15.0
2016-Apr-30 05:29 249 15.0
2016-Apr-30 05:24 270 14.4
2016-Apr-30 05:19 270 14.4
2016-Apr-30 05:14 269 14.4
2016-Apr-30 05:09 270 14.4
2016-Apr-30 05:04 249 14.4
2016-Apr-30 04:59 269 14.4
2016-Apr-30 04:54 312 14.4
2016-Apr-30 04:49 273 14.4
2016-Apr-30 04:44 315 14.4
2016-Apr-30 04:39 315 14.4
2016-Apr-30 04:34 315 14.4
2016-Apr-30 04:29 270 14.4
2016-Apr-30 04:24 270 14.4
2016-Apr-30 04:19 270 14.4
2016-Apr-30 04:14 270 14.4
2016-Apr-30 04:09 270 15.0
2016-Apr-30 04:04 248 14.4
2016-Apr-30 03:59 270 14.4
2016-Apr-30 03:54 270 14.4
2016-Apr-30 03:49 270 14.4
2016-Apr-30 03:44 270 14.4
2016-Apr-30 03:39 270 14.4
2016-Apr-30 03:34 269 14.4
2016-Apr-30 03:29 248 14.4
2016-Apr-30 03:24 248 14.4
2016-Apr-30 03:19 270 14.4
2016-Apr-30 03:14 268 14.4
2016-Apr-30 03:09 270 14.4
2016-Apr-30 03:04 270 14.4
2016-Apr-30 02:59 273 14.4
2016-Apr-30 02:54 270 14.4
2016-Apr-30 02:49 270 14.4
2016-Apr-30 02:44 270 14.4
2016-Apr-30 02:39 248 14.4
2016-Apr-30 02:34 184 15.0
2016-Apr-30 02:29 248 15.0
2016-Apr-30 02:24 248 15.0
2016-Apr-30 02:19 268 15.0
2016-Apr-30 02:14 269 15.0
2016-Apr-30 02:09 265 15.0
2016-Apr-30 02:04 225 15.0
2016-Apr-30 01:59 249 15.0
2016-Apr-30 01:54 315 15.0
2016-Apr-30 01:49 312 15.0
2016-Apr-30 01:44 270 15.0
2016-Apr-30 01:39 248 15.0
2016-Apr-30 01:34 269 15.0
2016-Apr-30 01:29 273 15.0
2016-Apr-30 01:24 312 15.0
2016-Apr-30 01:19 312 15.0
2016-Apr-30 01:14 270 15.0
2016-Apr-30 01:09 273 15.0
2016-Apr-30 01:04 270 15.0
2016-Apr-30 00:59 273 15.0
2016-Apr-30 00:54 315 15.0
2016-Apr-30 00:49 315 15.0
2016-Apr-30 00:44 315 15.0
2016-Apr-30 00:39 270 15.0
2016-Apr-30 00:34 248 15.0
2016-Apr-30 00:29 270 15.0
2016-Apr-30 00:24 269 15.0
2016-Apr-30 00:19 248 15.0
2016-Apr-30 00:14 248 15.0
2016-Apr-30 00:09 180 15.0
2016-Apr-30 00:04 180 15.0
2016-Apr-29 23:59 180 15.0
2016-Apr-29 23:54 180 15.0
2016-Apr-29 23:49 135 15.0
2016-Apr-29 23:44 135 15.0
2016-Apr-29 23:39 315 15.0
2016-Apr-29 23:34 270 15.0
2016-Apr-29 23:29 270 15.0
2016-Apr-29 23:24 273 15.0
2016-Apr-29 23:19 269 15.0
2016-Apr-29 23:14 312 15.0
2016-Apr-29 23:09 273 15.0
2016-Apr-29 23:04 270 15.0
2016-Apr-29 22:59 315 15.0
2016-Apr-29 22:54 315 15.0
2016-Apr-29 22:49 273 15.0
2016-Apr-29 22:44 041 15.0
2016-Apr-29 22:39 180 15.0
2016-Apr-29 22:34 048 15.0
2016-Apr-29 22:29 093 15.0
2016-Apr-29 22:24 177 15.0
2016-Apr-29 22:19 135 15.0
2016-Apr-29 22:14 132 15.0
2016-Apr-29 22:09 135 15.0
2016-Apr-29 22:04 135 15.6
2016-Apr-29 21:59 135 15.6
2016-Apr-29 21:54 093 15.6
2016-Apr-29 21:49 048 15.6
2016-Apr-29 21:44 135 15.6
2016-Apr-29 21:39 087 15.6
2016-Apr-29 21:34 135 15.6
2016-Apr-29 21:29 090 15.6
2016-Apr-29 21:24 090 15.6
2016-Apr-29 21:19 131 15.6
2016-Apr-29 21:14 090 15.6
2016-Apr-29 21:09 270 15.6
2016-Apr-29 21:04 090 15.6
2016-Apr-29 20:59 093 15.6
2016-Apr-29 20:54 090 15.6
2016-Apr-29 20:49 089 15.6
2016-Apr-29 20:44 045 15.6
2016-Apr-29 20:39 090 15.6
2016-Apr-29 20:34 090 15.6
2016-Apr-29 20:29 087 15.6
2016-Apr-29 20:24 090 15.6
2016-Apr-29 20:19 048 15.6
2016-Apr-29 20:14 090 15.6
2016-Apr-29 20:09 090 15.6
2016-Apr-29 20:04 090 16.1
2016-Apr-29 19:59 132 16.1
2016-Apr-29 19:54 132 16.1
2016-Apr-29 19:49 048 16.1
2016-Apr-29 19:44 090 16.1
2016-Apr-29 19:39 135 16.1
2016-Apr-29 19:34 090 16.1
2016-Apr-29 19:29 131 16.1
2016-Apr-29 19:24 090 16.1
2016-Apr-29 19:19 087 16.1
2016-Apr-29 19:14 132 16.1
2016-Apr-29 19:09 132 16.1
2016-Apr-29 19:04 090 16.1
2016-Apr-29 18:59 090 16.1
2016-Apr-29 18:54 093 16.7
2016-Apr-29 18:49 090 16.7
2016-Apr-29 18:44 087 16.7
2016-Apr-29 18:39 093 16.7
2016-Apr-29 18:34 090 16.7
2016-Apr-29 18:29 132 16.7
2016-Apr-29 18:24 135 16.7
2016-Apr-29 18:19 132 16.7
2016-Apr-29 18:14 135 16.7
2016-Apr-29 18:09 132 16.7
2016-Apr-29 18:04 090 16.7
2016-Apr-29 17:59 090 16.7
2016-Apr-29 17:54 090 16.7
2016-Apr-29 17:49 132 17.2
2016-Apr-29 17:44 135 17.2
2016-Apr-29 17:39 048 17.2
2016-Apr-29 17:34 090 17.2
2016-Apr-29 17:29 090 17.2
2016-Apr-29 17:24 090 17.2
2016-Apr-29 17:19 093 17.2
2016-Apr-29 17:14 090 17.2
2016-Apr-29 17:09 090 17.2
2016-Apr-29 17:04 135 17.2
2016-Apr-29 16:59 132 17.2
2016-Apr-29 16:54 132 17.2
2016-Apr-29 16:49 090 17.2
2016-Apr-29 16:44 090 17.2
2016-Apr-29 16:39 093 17.2
2016-Apr-29 16:34 090 17.2
2016-Apr-29 16:29 132 17.2
2016-Apr-29 16:24 093 17.2
2016-Apr-29 16:19 093 17.2
2016-Apr-29 16:14 091 17.2
2016-Apr-29 16:09 135 17.2
2016-Apr-29 16:04 090 17.2
2016-Apr-29 15:59 135 17.2
2016-Apr-29 15:54 131 16.7
2016-Apr-29 15:49 138 16.7
2016-Apr-29 15:44 090 16.7
2016-Apr-29 15:39 090 16.7
2016-Apr-29 15:34 090 16.7
2016-Apr-29 15:29 048 16.7
2016-Apr-29 15:24 131 16.7
2016-Apr-29 15:19 090 16.7
2016-Apr-29 15:14 090 16.7
2016-Apr-29 15:09 090 16.7
2016-Apr-29 15:04 135 16.1
2016-Apr-29 14:59 049 16.1
2016-Apr-29 14:54 090 16.1
2016-Apr-29 14:49 090 16.1
2016-Apr-29 14:44 135 16.1
2016-Apr-29 14:39 132 16.1
2016-Apr-29 14:34 089 0 gusting 8 16.1
2016-Apr-29 14:29 090 16.1
2016-Apr-29 14:24 087 16.1
2016-Apr-29 14:19 090 16.1
2016-Apr-29 14:14 090 16.1
2016-Apr-29 14:09 090 16.1
2016-Apr-29 14:04 048 16.1
2016-Apr-29 13:59 090 16.1
2016-Apr-29 13:54 093 16.1
2016-Apr-29 13:49 093 16.1
2016-Apr-29 13:44 090 16.1
2016-Apr-29 13:39 026 16.1
2016-Apr-29 13:34 090 16.1
2016-Apr-29 13:29 090 15.6
2016-Apr-29 13:24 088 15.6
2016-Apr-29 13:19 131 15.6
2016-Apr-29 13:14 090 15.6
2016-Apr-29 13:09 090 15.6
2016-Apr-29 13:04 090 15.6
2016-Apr-29 12:59 093 15.6
2016-Apr-29 12:54 132 15.6
2016-Apr-29 12:49 090 15.6
2016-Apr-29 12:44 090 15.6
2016-Apr-29 12:39 093 15.6
2016-Apr-29 12:34 090 15.6
2016-Apr-29 12:29 135 15.0
2016-Apr-29 12:24 045 15.0
2016-Apr-29 12:19 093 15.0
2016-Apr-29 12:14 090 15.0
2016-Apr-29 12:09 090 15.0
2016-Apr-29 12:04 135 15.0
2016-Apr-29 11:59 093 15.0
2016-Apr-29 11:54 090 15.0
2016-Apr-29 11:49 090 15.0
2016-Apr-29 11:44 093 15.0
2016-Apr-29 11:39 090 15.0
2016-Apr-29 11:34 090 15.0
2016-Apr-29 11:29 087 15.0
2016-Apr-29 11:24 087 15.0
2016-Apr-29 11:19 090 15.0
2016-Apr-29 11:14 048 15.0
2016-Apr-29 11:09 090 15.0
2016-Apr-29 11:04 045 15.0
2016-Apr-29 10:59 135 15.0
2016-Apr-29 10:54 090 15.0
2016-Apr-29 10:49 111 15.0
2016-Apr-29 10:44 090 15.0
2016-Apr-29 10:39 132 15.0
2016-Apr-29 10:34 090 15.0
2016-Apr-29 10:29 090 15.6
2016-Apr-29 10:24 087 15.6
2016-Apr-29 10:19 087 15.6
2016-Apr-29 10:14 048 15.6
2016-Apr-29 10:09 048 15.6
2016-Apr-29 10:04 270 16.1
2016-Apr-29 09:59 132 16.1
2016-Apr-29 09:54 090 16.1
2016-Apr-29 09:49 132 16.1
2016-Apr-29 09:44 090 16.7
2016-Apr-29 09:39 132 16.7
2016-Apr-29 09:34 093 16.7
2016-Apr-29 09:29 094 16.7
2016-Apr-29 09:24 087 16.7
2016-Apr-29 09:19 131 16.7
2016-Apr-29 09:14 090 16.7
2016-Apr-29 09:09 093 16.7
2016-Apr-29 09:04 090 16.7
2016-Apr-29 08:59 132 16.7
2016-Apr-29 08:54 132 16.7
2016-Apr-29 08:49 093 16.7
2016-Apr-29 08:44 090 16.7
2016-Apr-29 08:39 177 16.7
2016-Apr-29 08:34 093 16.7
2016-Apr-29 08:29 087 16.7
2016-Apr-29 08:24 135 17.2
2016-Apr-29 08:19 087 17.2
2016-Apr-29 08:14 090 17.2
2016-Apr-29 08:09 135 17.2
2016-Apr-29 08:04 135 17.2
2016-Apr-29 07:59 090 17.2
2016-Apr-29 07:54 132 17.2
2016-Apr-29 07:49 090 17.2
2016-Apr-29 07:44 093 16.7
2016-Apr-29 07:39 135 16.7
2016-Apr-29 07:34 090 16.7
2016-Apr-29 07:29 135 16.7
2016-Apr-29 07:24 132 16.7
2016-Apr-29 07:19 135 16.7
2016-Apr-29 07:14 090 16.7
2016-Apr-29 07:09 132 16.7
2016-Apr-29 07:04 090 16.1
2016-Apr-29 06:59 090 16.7
2016-Apr-29 06:54 050 16.1
2016-Apr-29 06:49 175 16.1
2016-Apr-29 06:44 132 16.1
2016-Apr-29 06:39 048 16.1
2016-Apr-29 06:34 090 16.1
2016-Apr-29 06:29 090 16.1
2016-Apr-29 06:24 090 16.1
2016-Apr-29 06:19 132 16.1
2016-Apr-29 06:14 087 16.1
2016-Apr-29 06:09 045 16.1
2016-Apr-29 06:04 090 16.1
2016-Apr-29 05:59 090 16.1
2016-Apr-29 05:54 087 15.6
2016-Apr-29 05:49 270 15.6
2016-Apr-29 05:44 045 15.6
2016-Apr-29 05:39 087 15.6
2016-Apr-29 05:34 087 15.6
2016-Apr-29 05:29 041 15.6
2016-Apr-29 05:24 090 15.6
2016-Apr-29 05:19 132 15.6
2016-Apr-29 05:14 132 15.6
2016-Apr-29 05:09 045 15.6
2016-Apr-29 05:04 045 15.6
2016-Apr-29 04:59 045 15.6
2016-Apr-29 04:54 045 15.6
2016-Apr-29 04:49 045 15.6
2016-Apr-29 04:44 090 15.6
2016-Apr-29 04:39 090 15.6
2016-Apr-29 04:34 048 15.6
2016-Apr-29 04:29 090 15.6
2016-Apr-29 04:24 090 15.6
2016-Apr-29 04:19 090 15.6
2016-Apr-29 04:14 087 15.6
2016-Apr-29 04:09 090 15.6
2016-Apr-29 04:04 045 15.6
2016-Apr-29 03:59 175 15.6
2016-Apr-29 03:54 090 15.6
2016-Apr-29 03:49 045 15.6
2016-Apr-29 03:44 045 15.6
2016-Apr-29 03:39 045 15.6
2016-Apr-29 03:34 270 15.6
2016-Apr-29 03:29 090 15.6
2016-Apr-29 03:24 087 15.6
2016-Apr-29 03:19 090 15.6
2016-Apr-29 03:14 090 15.6
2016-Apr-29 03:09 090 15.6
2016-Apr-29 03:04 090 15.6
2016-Apr-29 02:59 090 15.6
2016-Apr-29 02:54 090 15.6
2016-Apr-29 02:49 090 15.6
2016-Apr-29 02:44 180 15.6
2016-Apr-29 02:39 180 15.6
2016-Apr-29 02:34 180 15.6
2016-Apr-29 02:29 180 15.6
2016-Apr-29 02:24 176 15.6
2016-Apr-29 02:19 135 15.6
2016-Apr-29 02:14 132 15.6
2016-Apr-29 02:09 185 15.6
2016-Apr-29 02:04 090 15.6
2016-Apr-29 01:59 135 15.6
2016-Apr-29 01:54 176 15.6
2016-Apr-29 01:49 048 15.6
2016-Apr-29 01:44 180 15.6
2016-Apr-29 01:39 132 15.6
2016-Apr-29 01:34 090 15.6
2016-Apr-29 01:29 090 15.6
2016-Apr-29 01:24 090 15.6
2016-Apr-29 01:19 090 16.1
2016-Apr-29 01:14 090 16.1
2016-Apr-29 01:09 090 16.1
2016-Apr-29 01:04 090 16.1
2016-Apr-29 00:59 090 16.1
2016-Apr-29 00:54 093 16.1
2016-Apr-29 00:49 176 16.1
2016-Apr-29 00:44 177 16.1
2016-Apr-29 00:39 048 16.1
2016-Apr-29 00:34 135 16.1
2016-Apr-29 00:29 135 16.1
2016-Apr-29 00:24 090 16.1
2016-Apr-29 00:19 090 16.1
2016-Apr-29 00:14 090 16.1
2016-Apr-29 00:09 090 16.1
2016-Apr-29 00:04 090 16.1
2016-Apr-28 23:59 132 16.1
2016-Apr-28 23:54 135 16.1
2016-Apr-28 23:49 090 16.1
2016-Apr-28 23:44 135 16.1
2016-Apr-28 23:39 135 16.1
2016-Apr-28 23:34 180 16.1
2016-Apr-28 23:29 093 16.1
2016-Apr-28 23:24 090 16.1
2016-Apr-28 23:19 177 16.1
2016-Apr-28 23:14 176 16.7
2016-Apr-28 23:09 090 16.1
2016-Apr-28 23:04 135 16.7
2016-Apr-28 22:59 135 16.1
2016-Apr-28 22:54 132 16.7
2016-Apr-28 22:49 180 16.1
2016-Apr-28 22:44 090 16.1
2016-Apr-28 22:39 135 16.7
2016-Apr-28 22:34 090 16.7
2016-Apr-28 22:29 090 16.7
2016-Apr-28 22:24 135 16.7
2016-Apr-28 22:19 090 16.7
2016-Apr-28 22:14 176 16.7
2016-Apr-28 22:09 114 16.7
2016-Apr-28 22:04 090 16.7
2016-Apr-28 21:59 049 16.7
2016-Apr-28 21:54 132 16.7
2016-Apr-28 21:49 135 16.7
2016-Apr-28 21:44 090 16.7
2016-Apr-28 21:39 094 16.7
2016-Apr-28 21:34 132 16.7
2016-Apr-28 21:29 135 17.2
2016-Apr-28 21:24 177 17.2
2016-Apr-28 21:19 116 17.2
2016-Apr-28 21:14 138 17.2
2016-Apr-28 21:09 090 17.2
2016-Apr-28 21:04 090 17.2
2016-Apr-28 20:59 135 17.2
2016-Apr-28 20:54 093 17.2
2016-Apr-28 20:49 180 17.2
2016-Apr-28 20:44 132 17.2
2016-Apr-28 20:39 138 17.2
2016-Apr-28 20:34 177 17.2
2016-Apr-28 20:29 132 17.2
2016-Apr-28 20:24 175 17.2
2016-Apr-28 20:19 135 17.2
2016-Apr-28 20:14 177 17.2
2016-Apr-28 20:09 093 17.2
2016-Apr-28 20:04 135 17.2